Time,TemperatureF,DewpointF,PressureIn,WindDirection,WindDirectionDegrees,WindSpeedMPH,WindSpeedGustMPH,Humidity,HourlyPrecipIn,Conditions,Clouds,dailyrainin,SoftwareType,DateUTC
2013-03-09 00:02:00,36.0,32.0,-100.00,ESE,110,15.0,20.0,86,-99.99,,,-99.99,,2013-03-09 06:02:00,
2013-03-09 00:11:00,36.0,32.0,-100.00,ESE,105,14.0,15.0,86,-99.99,,,-99.99,,2013-03-09 06:11:00,
2013-03-09 00:22:00,36.0,32.0,-100.00,ESE,115,12.0,15.0,86,-99.99,,,-99.99,,2013-03-09 06:22:00,
2013-03-09 00:32:00,36.0,32.0,-100.00,ESE,115,12.0,15.0,86,-99.99,,,-99.99,,2013-03-09 06:32:00,
2013-03-09 00:42:00,36.0,32.0,-100.00,ESE,120,13.0,16.0,86,-99.99,,,-99.99,,2013-03-09 06:42:00,
2013-03-09 00:52:00,36.0,32.0,-100.00,ESE,120,15.0,18.0,84,-99.99,,,-99.99,,2013-03-09 06:52:00,
2013-03-09 01:01:00,36.0,32.0,-100.00,ESE,120,15.0,18.0,84,-99.99,,,-99.99,,2013-03-09 07:01:00,
2013-03-09 01:11:00,36.0,32.0,-100.00,SE,130,11.0,15.0,84,-99.99,,,-99.99,,2013-03-09 07:11:00,
2013-03-09 01:21:00,36.0,32.0,-100.00,East,95,19.0,20.0,85,-99.99,,,-99.99,,2013-03-09 07:21:00,
2013-03-09 01:32:00,36.0,32.0,-100.00,ESE,110,16.0,20.0,86,-99.99,,,-99.99,,2013-03-09 07:32:00,
2013-03-09 01:42:00,36.0,32.0,-100.00,ESE,110,16.0,20.0,86,-99.99,,,-99.99,,2013-03-09 07:42:00,
2013-03-09 01:52:00,36.0,32.0,-100.00,ESE,120,15.0,19.0,86,-99.99,,,-99.99,,2013-03-09 07:52:00,
2013-03-09 02:01:00,36.0,32.0,-100.00,ESE,120,15.0,19.0,86,-99.99,,,-99.99,,2013-03-09 08:01:00,
2013-03-09 02:11:00,37.0,32.0,-100.00,ESE,120,17.0,23.0,84,-99.99,,,-99.99,,2013-03-09 08:11:00,
2013-03-09 02:22:00,37.0,33.0,-100.00,ESE,115,13.0,21.0,85,-99.99,,,-99.99,,2013-03-09 08:22:00,
2013-03-09 02:32:00,37.0,33.0,-100.00,ESE,115,13.0,21.0,85,-99.99,,,-99.99,,2013-03-09 08:32:00,
2013-03-09 02:41:00,37.0,33.0,-100.00,ESE,115,16.0,20.0,85,-99.99,,,-99.99,,2013-03-09 08:41:00,
2013-03-09 02:52:00,37.0,32.0,-100.00,ESE,110,14.0,19.0,84,-99.99,,,-99.99,,2013-03-09 08:52:00,
2013-03-09 03:01:00,37.0,32.0,-100.00,ESE,110,14.0,19.0,84,-99.99,,,-99.99,,2013-03-09 09:01:00,
2013-03-09 03:12:00,36.0,32.0,-100.00,ESE,105,13.0,17.0,85,-99.99,,,-99.99,,2013-03-09 09:12:00,
2013-03-09 03:21:00,36.0,33.0,-100.00,ESE,115,13.0,16.0,86,-99.99,,,-99.99,,2013-03-09 09:21:00,
2013-03-09 03:32:00,36.0,33.0,-100.00,ESE,115,13.0,16.0,86,-99.99,,,-99.99,,2013-03-09 09:32:00,
2013-03-09 03:42:00,37.0,33.0,-100.00,ESE,115,16.0,19.0,85,-99.99,,,-99.99,,2013-03-09 09:42:00,
2013-03-09 03:52:00,37.0,32.0,-100.00,ESE,115,15.0,19.0,84,-99.99,,,-99.99,,2013-03-09 09:52:00,
2013-03-09 04:01:00,37.0,32.0,-100.00,ESE,115,15.0,19.0,84,-99.99,,,-99.99,,2013-03-09 10:01:00,
2013-03-09 04:11:00,37.0,33.0,-100.00,SE,125,15.0,19.0,83,-99.99,,,-99.99,,2013-03-09 10:11:00,
2013-03-09 04:21:00,37.0,32.0,-100.00,SE,125,14.0,19.0,82,-99.99,,,-99.99,,2013-03-09 10:21:00,
2013-03-09 04:31:00,37.0,32.0,-100.00,SE,125,14.0,19.0,82,-99.99,,,-99.99,,2013-03-09 10:31:00,
2013-03-09 04:42:00,37.0,33.0,-100.00,ESE,110,15.0,18.0,84,-99.99,,,-99.99,,2013-03-09 10:42:00,
2013-03-09 04:52:00,36.0,33.0,-100.00,ESE,120,15.0,19.0,86,-99.99,,,-99.99,,2013-03-09 10:52:00,
2013-03-09 05:01:00,36.0,33.0,-100.00,ESE,120,15.0,19.0,86,-99.99,,,-99.99,,2013-03-09 11:01:00,
2013-03-09 05:11:00,37.0,33.0,-100.00,ESE,110,14.0,18.0,86,-99.99,,,-99.99,,2013-03-09 11:11:00,
2013-03-09 05:21:00,37.0,33.0,-100.00,ESE,115,13.0,19.0,85,-99.99,,,-99.99,,2013-03-09 11:21:00,
2013-03-09 05:32:00,37.0,33.0,-100.00,ESE,115,13.0,19.0,85,-99.99,,,-99.99,,2013-03-09 11:32:00,
2013-03-09 05:42:00,37.0,33.0,-100.00,SE,125,14.0,16.0,83,-99.99,,,-99.99,,2013-03-09 11:42:00,
2013-03-09 05:52:00,37.0,33.0,-100.00,SE,130,16.0,19.0,83,-99.99,,,-99.99,,2013-03-09 11:52:00,
2013-03-09 06:01:00,37.0,33.0,-100.00,SE,130,16.0,19.0,83,-99.99,,,-99.99,,2013-03-09 12:01:00,
2013-03-09 06:11:00,37.0,32.0,-100.00,SE,130,14.0,21.0,82,-99.99,,,-99.99,,2013-03-09 12:11:00,
2013-03-09 06:21:00,36.0,32.0,-100.00,SE,130,12.0,17.0,83,-99.99,,,-99.99,,2013-03-09 12:21:00,
2013-03-09 06:32:00,36.0,32.0,-100.00,SE,130,12.0,17.0,83,-99.99,,,-99.99,,2013-03-09 12:32:00,
2013-03-09 06:42:00,36.0,32.0,-100.00,ESE,120,13.0,18.0,84,-99.99,,,-99.99,,2013-03-09 12:42:00,
2013-03-09 06:52:00,37.0,32.0,-100.00,SE,125,14.0,17.0,84,-99.99,,,-99.99,,2013-03-09 12:52:00,
2013-03-09 07:02:00,37.0,32.0,-100.00,SE,125,14.0,17.0,84,-99.99,,,-99.99,,2013-03-09 13:02:00,
2013-03-09 07:11:00,37.0,32.0,-100.00,ESE,120,15.0,19.0,83,-99.99,,,-99.99,,2013-03-09 13:11:00,
2013-03-09 07:21:00,37.0,32.0,-100.00,SE,135,14.0,19.0,82,-99.99,,,-99.99,,2013-03-09 13:21:00,
2013-03-09 07:32:00,37.0,32.0,-100.00,SE,135,14.0,19.0,82,-99.99,,,-99.99,,2013-03-09 13:32:00,
2013-03-09 07:42:00,38.0,32.0,-100.00,SE,135,15.0,24.0,81,-99.99,,,-99.99,,2013-03-09 13:42:00,
2013-03-09 07:52:00,38.0,32.0,-100.00,SE,145,17.0,24.0,80,-99.99,,,-99.99,,2013-03-09 13:52:00,
2013-03-09 08:01:00,38.0,32.0,-100.00,SE,145,17.0,24.0,80,-99.99,,,-99.99,,2013-03-09 14:01:00,
2013-03-09 08:11:00,38.0,32.0,-100.00,SSE,155,17.0,22.0,81,-99.99,,,-99.99,,2013-03-09 14:11:00,
2013-03-09 08:21:00,38.0,33.0,-100.00,SSE,150,17.0,24.0,82,-99.99,,,-99.99,,2013-03-09 14:21:00,
2013-03-09 08:32:00,38.0,33.0,-100.00,SSE,150,17.0,24.0,82,-99.99,,,-99.99,,2013-03-09 14:32:00,
2013-03-09 08:42:00,37.0,33.0,-100.00,SE,145,17.0,23.0,83,-99.99,,,-99.99,,2013-03-09 14:42:00,
2013-03-09 08:52:00,38.0,33.0,-100.00,SSE,150,18.0,22.0,84,-99.99,,,-99.99,,2013-03-09 14:52:00,
2013-03-09 09:02:00,38.0,33.0,-100.00,SSE,150,18.0,22.0,84,-99.99,,,-99.99,,2013-03-09 15:02:00,
2013-03-09 09:11:00,38.0,33.0,-100.00,SSE,150,18.0,21.0,84,-99.99,,,-99.99,,2013-03-09 15:11:00,
2013-03-09 09:22:00,38.0,34.0,-100.00,SSE,155,15.0,20.0,85,-99.99,,,-99.99,,2013-03-09 15:22:00,
2013-03-09 09:32:00,38.0,34.0,-100.00,SSE,155,15.0,20.0,85,-99.99,,,-99.99,,2013-03-09 15:32:00,
2013-03-09 09:42:00,38.0,34.0,-100.00,SSE,155,17.0,22.0,85,-99.99,,,-99.99,,2013-03-09 15:42:00,
2013-03-09 09:52:00,38.0,34.0,-100.00,SSE,160,18.0,21.0,85,-99.99,,,-99.99,,2013-03-09 15:52:00,
2013-03-09 10:01:00,38.0,34.0,-100.00,SSE,160,18.0,21.0,85,-99.99,,,-99.99,,2013-03-09 16:01:00,
2013-03-09 10:11:00,38.0,35.0,-100.00,SSE,160,16.0,21.0,86,-99.99,,,-99.99,,2013-03-09 16:11:00,
2013-03-09 10:21:00,39.0,35.0,-100.00,SSE,155,16.0,22.0,86,-99.99,,,-99.99,,2013-03-09 16:21:00,
2013-03-09 10:32:00,39.0,35.0,-100.00,SSE,155,16.0,22.0,86,-99.99,,,-99.99,,2013-03-09 16:32:00,
2013-03-09 10:42:00,39.0,35.0,-100.00,SSE,160,16.0,20.0,87,-99.99,,,-99.99,,2013-03-09 16:42:00,
2013-03-09 10:52:00,39.0,35.0,-100.00,SSE,155,14.0,22.0,87,-99.99,,,-99.99,,2013-03-09 16:52:00,
2013-03-09 11:01:00,39.0,35.0,-100.00,SSE,155,14.0,22.0,87,-99.99,,,-99.99,,2013-03-09 17:01:00,
2013-03-09 11:11:00,39.0,36.0,-100.00,SSE,150,17.0,21.0,86,-99.99,,,-99.99,,2013-03-09 17:11:00,
2013-03-09 11:22:00,40.0,36.0,-100.00,SE,145,21.0,25.0,85,-99.99,,,-99.99,,2013-03-09 17:22:00,
2013-03-09 11:32:00,40.0,36.0,-100.00,SE,145,21.0,25.0,85,-99.99,,,-99.99,,2013-03-09 17:32:00,
2013-03-09 11:42:00,41.0,36.0,-100.00,SE,140,20.0,27.0,83,-99.99,,,-99.99,,2013-03-09 17:42:00,
2013-03-09 11:52:00,42.0,37.0,-100.00,SSE,150,18.0,24.0,84,-99.99,,,-99.99,,2013-03-09 17:52:00,
2013-03-09 12:02:00,42.0,37.0,-100.00,SSE,150,18.0,24.0,84,-99.99,,,-99.99,,2013-03-09 18:02:00,
2013-03-09 12:11:00,42.0,36.0,-100.00,SSE,150,21.0,24.0,79,-99.99,,,-99.99,,2013-03-09 18:11:00,
2013-03-09 12:21:00,43.0,37.0,-100.00,SSE,150,18.0,26.0,80,-99.99,,,-99.99,,2013-03-09 18:21:00,
2013-03-09 12:32:00,43.0,37.0,-100.00,SSE,150,18.0,26.0,80,-99.99,,,-99.99,,2013-03-09 18:32:00,
2013-03-09 12:42:00,43.0,38.0,-100.00,SSE,155,17.0,22.0,81,-99.99,,,-99.99,,2013-03-09 18:42:00,
2013-03-09 12:52:00,44.0,38.0,-100.00,SSE,155,15.0,23.0,81,-99.99,,,-99.99,,2013-03-09 18:52:00,
2013-03-09 13:01:00,44.0,38.0,-100.00,SSE,155,15.0,23.0,81,-99.99,,,-99.99,,2013-03-09 19:01:00,
2013-03-09 13:11:00,44.0,39.0,-100.00,SSE,155,16.0,19.0,82,-99.99,,,-99.99,,2013-03-09 19:11:00,
2013-03-09 13:22:00,44.0,38.0,-100.00,SSE,150,19.0,22.0,81,-99.99,,,-99.99,,2013-03-09 19:22:00,
2013-03-09 13:32:00,44.0,38.0,-100.00,SSE,150,19.0,22.0,81,-99.99,,,-99.99,,2013-03-09 19:32:00,
2013-03-09 13:42:00,43.0,38.0,-100.00,SSE,150,16.0,24.0,84,-99.99,,,-99.99,,2013-03-09 19:42:00,
2013-03-09 13:52:00,44.0,40.0,-100.00,SSE,150,19.0,23.0,86,-99.99,,,-99.99,,2013-03-09 19:52:00,
2013-03-09 14:01:00,44.0,40.0,-100.00,SSE,150,19.0,23.0,86,-99.99,,,-99.99,,2013-03-09 20:01:00,
2013-03-09 14:11:00,44.0,40.0,-100.00,SE,145,18.0,23.0,86,-99.99,,,-99.99,,2013-03-09 20:11:00,
2013-03-09 14:21:00,43.0,39.0,-100.00,SE,145,21.0,24.0,85,-99.99,,,-99.99,,2013-03-09 20:21:00,
2013-03-09 14:32:00,43.0,39.0,-100.00,SE,145,21.0,24.0,85,-99.99,,,-99.99,,2013-03-09 20:32:00,
2013-03-09 14:42:00,44.0,39.0,-100.00,SE,135,21.0,27.0,83,-99.99,,,-99.99,,2013-03-09 20:42:00,
2013-03-09 14:52:00,44.0,39.0,-100.00,SE,140,19.0,25.0,82,-99.99,,,-99.99,,2013-03-09 20:52:00,
2013-03-09 15:02:00,44.0,39.0,-100.00,SE,140,19.0,25.0,82,-99.99,,,-99.99,,2013-03-09 21:02:00,
2013-03-09 15:12:00,44.0,39.0,-100.00,SE,130,18.0,24.0,82,-99.99,,,-99.99,,2013-03-09 21:12:00,
2013-03-09 15:22:00,45.0,40.0,-100.00,SE,130,20.0,25.0,81,-99.99,,,-99.99,,2013-03-09 21:22:00,
2013-03-09 15:32:00,45.0,40.0,-100.00,SE,130,20.0,25.0,81,-99.99,,,-99.99,,2013-03-09 21:32:00,
2013-03-09 15:42:00,47.0,41.0,-100.00,SE,130,19.0,24.0,80,-99.99,,,-99.99,,2013-03-09 21:42:00,
2013-03-09 15:52:00,48.0,42.0,-100.00,ESE,120,19.0,22.0,79,-99.99,,,-99.99,,2013-03-09 21:52:00,
2013-03-09 16:01:00,48.0,42.0,-100.00,ESE,120,19.0,22.0,79,-99.99,,,-99.99,,2013-03-09 22:01:00,
2013-03-09 16:11:00,49.0,42.0,-100.00,SE,130,23.0,28.0,77,-99.99,,,-99.99,,2013-03-09 22:11:00,
2013-03-09 16:21:00,49.0,43.0,-100.00,SE,130,20.0,27.0,78,-99.99,,,-99.99,,2013-03-09 22:21:00,
2013-03-09 16:32:00,49.0,43.0,-100.00,SE,130,20.0,27.0,78,-99.99,,,-99.99,,2013-03-09 22:32:00,
2013-03-09 16:42:00,50.0,43.0,-100.00,SE,130,22.0,27.0,75,-99.99,,,-99.99,,2013-03-09 22:42:00,
2013-03-09 16:52:00,51.0,43.0,-100.00,SE,130,19.0,26.0,72,-99.99,,,-99.99,,2013-03-09 22:52:00,
2013-03-09 17:01:00,51.0,43.0,-100.00,SE,130,19.0,26.0,72,-99.99,,,-99.99,,2013-03-09 23:01:00,
2013-03-09 17:11:00,51.0,42.0,-100.00,SSE,150,24.0,29.0,69,-99.99,,,-99.99,,2013-03-09 23:11:00,
2013-03-09 17:21:00,51.0,42.0,-100.00,SSE,150,20.0,26.0,71,-99.99,,,-99.99,,2013-03-09 23:21:00,
2013-03-09 17:32:00,51.0,42.0,-100.00,SSE,150,20.0,26.0,71,-99.99,,,-99.99,,2013-03-09 23:32:00,
2013-03-09 17:42:00,51.0,42.0,-100.00,SSE,155,23.0,28.0,71,-99.99,,,-99.99,,2013-03-09 23:42:00,
2013-03-09 17:52:00,51.0,42.0,-100.00,SSE,150,20.0,26.0,71,-99.99,,,-99.99,,2013-03-09 23:52:00,
2013-03-09 18:01:00,51.0,42.0,-100.00,SSE,150,20.0,26.0,71,-99.99,,,-99.99,,2013-03-10 00:01:00,
2013-03-09 18:11:00,50.0,42.0,-100.00,SE,145,21.0,26.0,73,-99.99,,,-99.99,,2013-03-10 00:11:00,
2013-03-09 18:22:00,49.0,41.0,-100.00,SE,145,21.0,27.0,74,-99.99,,,-99.99,,2013-03-10 00:22:00,
2013-03-09 18:32:00,49.0,41.0,-100.00,SE,145,21.0,27.0,74,-99.99,,,-99.99,,2013-03-10 00:32:00,
2013-03-09 18:42:00,49.0,41.0,-100.00,SE,145,21.0,28.0,74,-99.99,,,-99.99,,2013-03-10 00:42:00,
2013-03-09 18:52:00,49.0,41.0,-100.00,SE,145,20.0,28.0,73,-99.99,,,-99.99,,2013-03-10 00:52:00,
2013-03-09 19:01:00,49.0,41.0,-100.00,SE,145,20.0,28.0,73,-99.99,,,-99.99,,2013-03-10 01:01:00,
2013-03-09 19:11:00,49.0,41.0,-100.00,SE,145,20.0,24.0,74,-99.99,,,-99.99,,2013-03-10 01:11:00,
2013-03-09 19:21:00,49.0,41.0,-100.00,SE,145,21.0,26.0,74,-99.99,,,-99.99,,2013-03-10 01:21:00,
2013-03-09 19:32:00,49.0,41.0,-100.00,SE,145,21.0,26.0,74,-99.99,,,-99.99,,2013-03-10 01:32:00,
2013-03-09 19:41:00,49.0,41.0,-100.00,SE,145,20.0,25.0,74,-99.99,,,-99.99,,2013-03-10 01:41:00,
2013-03-09 19:52:00,49.0,41.0,-100.00,SSE,150,20.0,28.0,73,-99.99,,,-99.99,,2013-03-10 01:52:00,
2013-03-09 20:01:00,49.0,41.0,-100.00,SSE,150,20.0,28.0,73,-99.99,,,-99.99,,2013-03-10 02:01:00,
2013-03-09 20:11:00,49.0,40.0,-100.00,SE,145,21.0,27.0,72,-99.99,,,-99.99,,2013-03-10 02:11:00,
2013-03-09 20:22:00,49.0,40.0,-100.00,SSE,150,21.0,25.0,72,-99.99,,,-99.99,,2013-03-10 02:22:00,
2013-03-09 20:32:00,49.0,40.0,-100.00,SSE,150,21.0,25.0,72,-99.99,,,-99.99,,2013-03-10 02:32:00,
2013-03-09 20:42:00,49.0,40.0,-100.00,SSE,155,24.0,29.0,71,-99.99,,,-99.99,,2013-03-10 02:42:00,
2013-03-09 20:52:00,49.0,40.0,-100.00,SSE,155,21.0,28.0,72,-99.99,,,-99.99,,2013-03-10 02:52:00,
2013-03-09 21:02:00,49.0,40.0,-100.00,SSE,155,21.0,28.0,72,-99.99,,,-99.99,,2013-03-10 03:02:00,
2013-03-09 21:11:00,48.0,40.0,-100.00,SSE,160,23.0,29.0,72,-99.99,,,-99.99,,2013-03-10 03:11:00,
2013-03-09 21:22:00,48.0,40.0,-100.00,SSE,160,23.0,29.0,72,-99.99,,,-99.99,,2013-03-10 03:22:00,
2013-03-09 21:32:00,48.0,40.0,-100.00,SSE,160,23.0,29.0,72,-99.99,,,-99.99,,2013-03-10 03:32:00,
2013-03-09 21:42:00,49.0,40.0,-100.00,SSE,160,21.0,27.0,71,-99.99,,,-99.99,,2013-03-10 03:42:00,
2013-03-09 21:52:00,49.0,40.0,-100.00,SSE,160,21.0,26.0,69,-99.99,,,-99.99,,2013-03-10 03:52:00,
2013-03-09 22:01:00,49.0,40.0,-100.00,SSE,160,21.0,26.0,69,-99.99,,,-99.99,,2013-03-10 04:01:00,
2013-03-09 22:11:00,50.0,40.0,-100.00,SSE,160,21.0,27.0,68,-99.99,,,-99.99,,2013-03-10 04:11:00,
2013-03-09 22:21:00,50.0,39.0,-100.00,SSE,160,21.0,27.0,67,-99.99,,,-99.99,,2013-03-10 04:21:00,
2013-03-09 22:32:00,50.0,39.0,-100.00,SSE,160,21.0,27.0,67,-99.99,,,-99.99,,2013-03-10 04:32:00,
2013-03-09 22:42:00,50.0,39.0,-100.00,SSE,160,21.0,26.0,66,-99.99,,,-99.99,,2013-03-10 04:42:00,
2013-03-09 22:52:00,50.0,39.0,-100.00,SSE,160,19.0,27.0,65,-99.99,,,-99.99,,2013-03-10 04:52:00,
2013-03-09 23:01:00,50.0,39.0,-100.00,SSE,160,19.0,27.0,65,-99.99,,,-99.99,,2013-03-10 05:01:00,
2013-03-09 23:11:00,50.0,39.0,-100.00,SSE,160,21.0,28.0,66,-99.99,,,-99.99,,2013-03-10 05:11:00,
2013-03-09 23:22:00,49.0,40.0,-100.00,SSE,165,20.0,24.0,70,-99.99,,,-99.99,,2013-03-10 05:22:00,
2013-03-09 23:31:00,49.0,40.0,-100.00,SSE,165,20.0,24.0,70,-99.99,,,-99.99,,2013-03-10 05:31:00,
2013-03-09 23:42:00,49.0,40.0,-100.00,SSE,165,20.0,25.0,70,-99.99,,,-99.99,,2013-03-10 05:42:00,
2013-03-09 23:52:00,49.0,40.0,-100.00,SSE,165,17.0,23.0,72,-99.99,,,-99.99,,2013-03-10 05:52:00,